Location: ??????
(55.2000°N, 38.3000°E)
Time: 05:41:16
(UTC+00:00)

Daily predictions for brighter satellites

Satellite Brightness Start Highest point End
(mag) Time Altitude Azimuth Time Altitude Azimuth Time Altitude Azimuth
Cosmos 2237 Rocket 4.5 00:13:51 17° ESE 00:14:20 17° E 00:17:52 10° ENE
Cosmos 2369 Rocket 4.2 00:17:55 24° NE 00:17:55 24° NE 00:21:55 10° E
ADEOS Rocket 4.0 00:15:34 10° NNE 00:21:57 49° E 00:21:57 49° E
ADEOS II 4.4 00:17:46 10° NNE 00:19:01 17° NNE 00:19:01 17° NNE
Cosmos 2360 Rocket 4.1 00:29:09 23° NNE 00:29:09 23° NNE 00:31:16 10° NNE
Cosmos 2322 Rocket 4.1 00:34:12 24° NNE 00:34:12 24° NNE 00:36:25 10° NNE
Cosmos 2333 Rocket 4.1 00:35:28 24° NNE 00:35:28 24° NNE 00:37:48 10° NNE
SJ 16-02 4.3 00:38:25 11° E 00:38:25 11° E 00:38:45 10° ESE
USA 234 3.9 00:30:30 10° ESE 00:35:06 50° ESE 00:35:06 50° ESE
CZ-2D R/B 4.3 00:35:37 10° NNE 00:36:47 17° NNE 00:36:47 17° NNE
ACS3 Solar Sail 2.7 00:35:37 10° NNE 00:39:55 44° NE 00:39:55 44° NE
SL-16 R/B 4.1 00:44:51 22° NNE 00:44:51 22° NNE 00:47:05 10° NNE
COSMOS 2455 4.1 00:46:06 34° NNE 00:46:06 34° NNE 00:49:36 10° NE
Resurs 1-4 Rocket 4.3 00:48:00 10° NNE 00:49:16 18° N 00:49:16 18° N
Cosmos 1725 Rocket 4.5 00:52:27 10° N 00:58:44 59° ENE 01:04:57 10° SSE
Cosmos 2219 Rocket 3.5 01:03:00 33° NNE 01:03:00 33° NNE 01:06:11 10° NNE
NOSS 3-1 (C) 4.0 01:03:05 48° ENE 01:03:05 48° ENE 01:07:37 10° NE
Cosmos 1727 Rocket 4.4 01:07:36 58° NNE 01:07:36 58° NNE 01:12:34 10° NNE
Lacrosse 4 Rocket 4.0 01:11:04 15° NE 01:11:04 15° NE 01:12:34 10° ENE
NOSS 3-2 (C) 4.3 01:11:41 42° N 01:12:14 43° N 01:19:23 10° ENE
Lacrosse 5 rocket 4.2 01:16:10 12° E 01:16:10 12° E 01:16:32 10° E
H-2A R/B 3.6 01:14:38 10° NNE 01:16:39 25° NNE 01:16:39 25° NNE
Cosmos 1802 Rocket 4.2 01:13:43 10° N 01:21:19 62° SSE 01:26:25 10° SSE
NOSS 0 Rocket 4.2 01:20:16 60° SSE 01:20:52 63° ESE 01:26:57 10° NE
Cosmos 1000 Rocket 4.4 01:28:39 85° SSW 01:28:52 90° W 01:35:15 10° NNE
NOSS 3-2 (A) 4.3 01:31:49 42° NNW 01:33:47 54° NNE 01:41:39 10° E
COSMOS 2428 2.8 01:39:07 68° N 01:39:07 68° N 01:44:14 10° NNE
Cosmos 1980 Rocket 4.2 01:38:37 16° N 01:39:02 16° N 01:42:33 10° NNE
Meteor 2-5 Rocket 3.9 01:37:02 41° S 01:39:08 74° E 01:44:54 10° NNE
Cosmos 2322 3.9 01:40:27 59° N 01:40:27 59° N 01:45:18 10° NNE
USA 267 4.3 01:34:29 10° ENE 01:40:34 39° SE 01:44:05 23° SSW
CZ-2C R/B 2.7 01:36:04 10° NNE 01:41:07 66° ESE 01:42:21 49° SSE
Cosmos 1980 3.9 01:40:45 51° S 01:42:00 66° ESE 01:47:39 10° NE
Cosmos 2123 Rocket 3.9 01:39:50 32° S 01:42:54 83° E 01:49:08 10° NNE
Cosmos 2016 Rocket 3.9 01:37:30 10° NNW 01:43:55 82° W 01:50:16 10° S
Cosmos 1939 Rocket 3.9 01:46:59 10° NNE 01:50:40 42° E 01:51:20 38° SE
NOSS 3-1 (A) 3.1 01:50:03 63° S 01:50:41 71° SE 01:56:45 10° NE
Meteor 2-21 4.2 01:50:58 69° W 01:51:04 70° WNW 01:57:07 10° N
Cosmos 2084 4.4 01:52:25 39° NE 01:52:25 39° NE 01:55:53 10° E
Cosmos 1190 Rocket 4.3 01:54:11 54° S 01:54:11 54° S 01:58:16 10° SSE
Cosmos 676 Rocket 3.9 01:54:26 60° NNW 01:55:24 83° ENE 02:00:37 10° SSE
Cosmos 2297 4.1 01:54:05 33° NNW 01:56:36 62° NE 02:02:11 10° SE
CENTAUR R/B 3.2 01:52:52 37° NW 01:56:36 84° NE 02:05:52 10° SE
Cosmos 2237 Rocket 2.2 01:55:42 45° SSW 01:57:30 77° ESE 02:03:10 10° NE
ARGOS 3.0 01:52:07 10° NNE 01:57:35 84° WNW 01:58:54 54° SSW
ADEOS II 3.7 01:57:45 10° N 01:59:50 21° NNW 01:59:50 21° NNW
Cosmos 2369 Rocket 2.4 01:59:43 32° NNW 02:02:22 68° NE 02:08:03 10° SE
USA 238 DEB 4.4 02:03:31 34° NW 02:05:42 44° N 02:12:46 10° ENE
USA 238 4.4 02:03:37 34° NW 02:05:48 44° N 02:12:52 10° ENE
Cosmos 1954 Rocket 3.8 02:07:31 67° WSW 02:07:31 67° WSW 02:12:33 10° SSE
ADEOS Rocket 3.5 02:01:16 10° N 02:07:38 50° WNW 02:08:51 45° W
Cosmos 2360 Rocket 3.6 02:10:54 24° NNW 02:10:54 24° NNW 02:15:13 10° NNE
Meteor 2-16 Rocket 4.3 02:05:47 11° SSW 02:11:36 77° WNW 02:17:48 10° N
SJ 16-02 2.0 02:15:02 41° S 02:15:02 41° S 02:17:58 10° SSE
Cosmos 2322 Rocket 3.6 02:15:59 22° NNW 02:16:03 22° NNW 02:20:28 10° NNE
IRS-1D 4.4 02:11:28 10° NNE 02:16:17 48° E 02:21:02 10° S
Cosmos 2333 Rocket 3.7 02:17:29 21° NNW 02:17:51 21° NNW 02:22:13 10° NNE
SKYMED 2 3.6 02:13:35 10° SSE 02:17:56 77° ENE 02:21:03 19° N
CZ-2D R/B 4.0 02:16:30 10° N 02:18:02 16° NNW 02:18:02 16° NNW
USA 234 3.5 02:14:07 10° SE 02:20:29 51° SW 02:22:27 39° W
NOSS 2-2 (E) 3.9 02:23:27 40° N 02:23:58 43° NNE 02:28:03 10° ESE
ACS3 Solar Sail 2.3 02:18:56 10° N 02:24:02 36° NW 02:24:02 36° NW
SeaSat 1 4.2 02:21:15 10° NNE 02:24:16 18° NNW 02:24:16 18° NNW
COSMO-SKYMED 1 2.7 02:20:51 10° SSE 02:24:57 66° ENE 02:28:38 13° N
USA 59 Rocket 1.0 02:28:26 22° NNE 02:28:26 22° NNE 02:29:53 10° NE
SL-16 R/B 3.9 02:26:41 17° NNW 02:27:36 18° NNW 02:31:27 10° NNE
Cosmos 1371 Rocket 4.5 02:23:02 10° S 02:28:15 62° ESE 02:33:33 10° NNE
Cosmos 968 Rocket 3.5 02:25:09 22° NNW 02:28:40 81° ENE 02:33:55 10° SSE
COSMOS 2455 4.0 02:29:14 26° NW 02:30:48 29° NNW 02:36:00 10° NE
Cosmos 1741 Rocket 4.3 02:26:44 16° NNW 02:30:57 67° ENE 02:36:14 10° SE
Resurs 1-4 Rocket 4.1 02:28:56 10° N 02:30:19 14° NNW 02:30:19 14° NNW
Cosmos 371 Rocket 3.4 02:32:57 48° W 02:33:25 50° WSW 02:38:04 10° S
Cosmos 2061 Rocket 4.0 02:29:27 10° NNW 02:35:29 55° W 02:41:30 10° SSW
Cosmos 1891 Rocket 4.5 02:29:37 10° NNW 02:36:03 90° SE 02:42:18 10° S
CZ-4 R/B 4.3 02:33:27 10° NNE 02:38:19 65° ESE 02:43:04 10° S
Aureole 3 Rocket 3.6 02:35:10 10° NNW 02:39:55 79° W 02:46:35 10° S
Cosmos 2292 Rocket 4.3 02:35:23 14° SSW 02:40:01 58° WNW 02:46:39 10° N
Cosmos 1656 Rocket 3.9 02:38:46 36° WNW 02:40:29 46° WSW 02:45:52 10° S
Cosmos 304 Rocket 4.1 02:41:42 41° W 02:41:58 41° WSW 02:46:26 10° S
Gbstr 26 Del rocket 3.8 02:39:59 36° WSW 02:41:59 62° S 02:48:00 10° ESE
Meteor 1-24 Rocket 4.0 02:41:06 35° W 02:42:24 41° WNW 02:47:33 10° N
Cosmos 2219 Rocket 3.5 02:44:42 22° NW 02:45:37 23° NNW 02:50:06 10° NNE
Cosmos 2233 Rocket 4.2 02:40:26 10° NNW 02:46:22 44° W 02:52:13 10° SSW
Cosmos 1400 Rocket 2.6 02:44:17 18° NNW 02:46:57 84° ENE 02:50:37 10° SSE
Lacrosse 4 Rocket 2.3 02:46:35 21° NNW 02:48:49 41° NE 02:52:34 10° ESE
Cosmos 2151 Rocket 3.7 02:44:53 10° N 02:49:25 80° ENE 02:53:54 10° SSE
Cosmos 1484 Rocket 4.4 02:46:56 10° NNE 02:50:11 32° E 02:53:24 10° SSE
Lacrosse 5 rocket 0.7 02:49:50 60° WSW 02:50:17 71° SSW 02:53:36 10° ESE
In-Cosmos 22 Rocket 4.4 02:45:24 10° S 02:51:13 81° E 02:57:01 10° NNE
USA 306 3.4 02:50:32 27° SSW 02:51:50 40° SSE 02:55:27 10° E
NOSS 3-1 (C) 3.7 02:50:25 31° WNW 02:52:41 47° NNW 02:59:06 10° NE
NOSS 2-2 (C) 3.2 02:53:25 40° WNW 02:54:41 74° SW 02:59:26 10° SE
Cosmos 1447 Rocket 4.4 02:50:10 10° SSW 02:56:27 76° WNW 03:02:50 10° N
Sich 1 Rocket 4.0 02:51:55 10° N 02:56:28 65° ENE 03:00:56 10° SSE
H-2A R/B 3.6 02:54:55 10° N 02:57:08 17° NW 02:57:08 17° NW
Cosmos 1464 Rocket 4.0 02:52:09 10° N 02:58:22 86° E 03:04:30 10° S
H-2A R/B 3.9 02:55:41 10° N 02:58:58 34° WNW 02:58:58 34° WNW
SL-16 R/B 2.5 02:55:07 10° SSW 03:00:47 72° ESE 03:06:29 10° NE
PAYLOAD A 4.5 02:55:52 10° N 03:00:55 42° WNW 03:05:41 11° SW
SWARM C 4.4 02:58:24 10° S 03:01:43 87° W 03:05:04 10° N
SWARM A 4.2 02:58:31 10° S 03:01:50 81° E 03:05:10 10° N
Cosmos 1624 Rocket 3.9 02:56:53 10° SSW 03:02:04 80° WNW 03:07:17 10° NNE
Cosmos 1420 Rocket 4.1 02:57:42 14° SW 03:02:05 55° NW 03:07:19 10° NNE
Cosmos 332 Rocket 3.7 02:58:13 15° NNW 03:02:13 82° WSW 03:06:59 10° SSE
NOSS 3-2 (C) 4.1 02:59:05 19° NW 03:04:10 66° NNE 03:12:23 10° ESE
SL-08 RB Rocket 4.3 03:00:37 10° N 03:04:41 33° WNW 03:06:14 26° W
Helios 1A Rocket 2.9 03:01:56 10° S 03:05:06 38° W 03:05:20 37° W
Cosmos 1378 Rocket 3.5 03:00:51 10° S 03:05:07 84° E 03:09:26 10° NNE
Cosmos 2242 Rocket 3.5 03:02:25 10° SSW 03:06:48 66° WNW 03:11:14 10° N
Okean 1 Rocket 3.1 03:03:10 10° N 03:07:32 79° ENE 03:11:50 10° SSE
NOSS 0 Rocket 4.4 03:04:17 23° W 03:07:39 42° NW 03:13:30 10° NNE
Cosmos 2346 Rocket 4.4 03:03:05 10° SSW 03:09:07 62° WNW 03:15:10 10° N
Cosmos 2034 Rocket 4.3 03:03:21 10° N 03:09:44 74° ENE 03:16:06 10° SSE
Cosmos 1812 3.9 03:14:35 17° SW 03:14:35 17° SW 03:15:33 10° SSW
Meteor 2-1 Rocket 4.4 03:07:19 10° NNW 03:13:17 84° ENE 03:19:07 10° SSE
NOSS 2-1 (E) 4.0 03:16:18 23° NNW 03:16:46 24° NNW 03:19:21 10° NE
NOSS 2-2 (D) 3.2 03:14:49 25° NW 03:16:51 82° SW 03:21:31 10° SE
Cosmos 1452 Rocket 4.5 03:12:54 10° S 03:17:56 50° ESE 03:23:00 10° NE
CZ-2C R/B 3.4 03:14:37 10° N 03:18:49 27° WNW 03:21:33 17° W
Cosmos 1850 Rocket 4.0 03:14:12 12° NW 03:18:52 57° WSW 03:23:54 10° S
PKM 4.2 03:19:13 20° WNW 03:22:53 61° SSW 03:25:45 10° SE
COSMOS 2428 3.8 03:21:07 19° WNW 03:23:40 26° NNW 03:28:26 10° NNE
USA 267 3.4 03:17:34 10° ENE 03:24:09 81° SSE 03:30:43 10° WSW
Cosmos 1939 Rocket 3.7 03:21:15 10° N 03:24:28 26° WNW 03:26:12 19° WSW
NOSS 3-2 (A) 4.0 03:19:10 16° NW 03:25:06 75° SW 03:33:37 10° SE
Cosmos 1980 Rocket 4.0 03:21:01 10° NNW 03:25:14 21° NNE 03:29:25 10° ENE
Cosmos 1980 4.3 03:22:38 17° W 03:26:28 36° NW 03:31:43 10° NNE
USA 229 DEB 4.0 03:20:43 10° SSW 03:26:41 65° SE 03:33:28 10° NE
USA 229 4.0 03:20:56 10° SSW 03:26:53 65° SE 03:33:40 10° NE
IGS 5A 4.0 03:24:03 10° NNE 03:28:02 59° E 03:32:00 10° S
Cosmos 2084 3.4 03:28:09 19° WNW 03:30:54 61° SW 03:34:51 10° SE
Cosmos 1331 Rocket 4.2 03:27:05 10° SSW 03:32:19 76° ESE 03:37:33 10° NNE
Meteor 1-11 4.3 03:29:07 10° SSW 03:35:00 90° WNW 03:40:52 10° NNE
ARGOS 4.4 03:33:09 10° N 03:37:09 21° NW 03:40:21 13° W
Cosmos 1356 Rocket 4.4 03:33:18 10° N 03:37:15 46° ENE 03:41:12 10° SE
Cosmos 2297 4.4 03:36:01 12° NW 03:40:28 33° WSW 03:45:25 10° S
CBERS-1 4.2 03:35:52 10° NNE 03:41:02 77° ESE 03:46:09 10° SSW
NOSS 3-1 (A) 3.7 03:37:27 14° W 03:41:50 48° NNW 03:48:18 10° NE
Cosmos 2237 Rocket 2.9 03:37:34 12° W 03:42:05 33° NW 03:47:10 10° NNE
SMAP 4.1 03:37:40 10° NNE 03:42:14 51° E 03:46:47 10° S
Cosmos 1441 Rocket 4.1 03:40:16 10° S 03:43:28 44° E 03:46:41 10° NNE
Okean 2 Rocket 3.4 03:40:46 10° NNW 03:44:53 41° W 03:49:00 10° SSW
Cosmos 2369 Rocket 3.1 03:41:31 12° NW 03:46:00 30° WSW 03:50:51 10° SSW
CENTAUR R/B 3.8 03:40:00 12° NW 03:47:07 42° WSW 03:55:39 10° S
ATLAS 3B R/B 3.1 03:40:35 10° SW 03:48:15 84° SE 03:56:13 10° NE
NOSS 2-1 (D) 4.4 03:49:19 13° NW 03:50:59 19° N 03:53:17 10° NE
Cosmos 2056 Rocket 4.0 03:45:59 10° WSW 03:51:05 41° NW 03:56:10 10° NNE
Cosmos 1943 3.6 03:46:12 10° SSW 03:51:46 68° ESE 03:57:21 10° NE
NOSS 2-1 (C) 4.4 03:52:10 12° NW 03:53:56 19° N 03:56:14 10° NE
IRS-1D 4.0 03:50:52 10° N 03:55:19 34° WNW 03:59:43 10° WSW
Orbus 7S? 2.7 03:51:38 10° WSW 03:55:35 81° NNW 03:58:14 10° ENE
Cosmos 2360 Rocket 4.0 03:53:16 10° NW 03:56:45 16° N 04:00:14 10° NE
USA 238 DEB 4.2 03:50:56 10° NW 03:57:49 60° NNE 04:05:31 10° ESE
USA 238 4.3 03:51:02 10° NW 03:57:56 60° NNE 04:05:37 10° ESE
Cosmos 1315 Rocket 2.9 03:54:25 10° N 03:58:17 73° ENE 04:02:07 10° SSE
COSMO-SKYMED 1 3.9 03:57:48 10° SW 04:00:42 18° W 04:03:36 10° NW
Iridium 45 4.3 03:57:51 10° NNW 04:01:00 56° W 04:04:07 10° S
Cosmos 2228 3.3 03:57:10 10° N 04:01:26 72° ENE 04:05:40 10° SSE
Cosmos 292 Rocket 4.0 03:57:29 10° NW 04:02:09 51° WSW 04:06:46 10° S
Cosmos 2322 Rocket 4.1 03:58:42 10° NW 04:02:16 16° N 04:05:50 10° NE
NOSS 2-3 (C) 4.4 03:58:42 10° NW 04:03:09 58° NNE 04:09:12 10° ESE
Cosmos 2333 Rocket 4.1 04:00:33 10° NW 04:04:21 18° N 04:08:09 10° NE
ACS3 Solar Sail 3.5 04:04:15 10° NNW 04:05:42 11° NW 04:07:08 10° NW
Cosmos 1025 Rocket 3.3 04:06:03 10° SSW 04:10:15 46° WNW 04:14:29 10° N
NOSS 2-3 (E) 4.3 04:06:05 10° NW 04:10:42 69° NE 04:16:52 10° ESE
Cosmos 1461 3.9 04:07:41 10° NW 04:11:21 34° NNE 04:14:58 10° E
NOSS 2-2 (E) 4.1 04:09:56 10° WNW 04:13:25 40° SW 04:18:01 10° SSE
SL-16 R/B 4.0 04:10:08 10° NNW 04:13:57 18° NNE 04:17:47 10° NE
MOS 1 Rocket 4.3 04:09:16 10° NNE 04:14:05 56° E 04:19:07 10° S
Cosmos 1674 Rocket 4.2 04:11:10 10° SW 04:15:11 33° WNW 04:19:15 10° N
USA 59 Rocket 1.0 04:14:33 10° NW 04:16:44 18° N 04:19:03 10° NE
COSMOS 2455 4.1 04:13:14 10° NW 04:18:28 29° NNE 04:23:41 10° ENE
Cosmos 1697 Rocket 3.6 04:13:53 10° NNW 04:19:19 45° NE 04:24:42 10° ESE
USA 306 2.7 04:16:45 10° W 04:20:17 73° S 04:24:18 10° E
Tsikada Rocket 4.1 04:16:23 10° SSW 04:22:44 79° WNW 04:29:13 10° N
